Showing default

ECHOSTAR 18, 41592

Orbit data source: Space-Track

ECHOSTAR 18, 41592 is a payload satellite owned by Dish Network (US) in GEO that was launched on Sat, 18 Jun 2016 UTC via an ARIANE 5ECA launch vehicle from the French Guiana (FRGUI). Payload-class satellites include a variety of spacecraft equipped with specific instruments for various scientific and technological missions. These include communications satellites like Starlink; space stations such as the ISS; scientific satellites like the Hubble; Earth observation satellites from companies like Planet Labs, Umbra, and HawkEye 360; GPS; miniature CubeSats for education and research; and military/defense satellites.

Loading next visibility...
Identifier
41592, 2016-039B
Orbit
GEO
Country
Flag of USUS
Related business
Manufacturer
SS/Loral (MDA)
Mission
Operational Commercial Communications
Bus & Motor
SSL-1300, R-4D-15-300
Mass
6,300 kg wet, ~3,500 kg dry
Launch date (UTC)
2016-06-18 (10 years ago)
Launch vehicle
ARIANE 5ECA
Launch site
French Guiana (FRGUI)
Object type
Payload
Rocket body
Debris
Shape & HBR
Box + 2 Pan, 15.5 m
Radar Cross Section
40.765 m², Large (>1 m²)

Expand to show TLE details & history
Last TLE update: 11 hours ago

TLE from 11 hours ago
0 ECHOSTAR 18
1 41592U 16039B   26125.89362859 -.00000274  00000-0  00000-0 0  9990
2 41592   0.0130 274.0975 0001673 138.2033  71.8106  1.00272381 36206
Epoch: 2026-05-05T21:26Z
TLE epoch observation values (Epoch: 2026-05-05T21:26:49.510Z)
Latitude
-0.01628°
Longitude
-61.3453°
Altitude
35,783.713 km
Speed
3.075 km/s
True Right ascension
08h 16m 29s
True Declination
0° 00' 59"
Sunlit
Object was in daylight at epoch
Visualization orbit readout
Latitude
Unknown
Longitude
Unknown
Altitude
Unknown
Speed
Unknown
Apparent Right ascension
Unknown
Apparent Declination
Unknown
Sunlit
N/A
Visualization observer readout
Local Sidereal Time
16:34:30
Azimuth
Unknown
Elevation
Unknown
Doppler factor
Unknown
Orbital elements
Apogee altitude
35,794.553 km
Perigee altitude
35,780.444 km
Semi-major axis
42,165.635 km
Eccentricity
0.00017
Inclination
0.013°
RAAN
274.0975°
Arg. of periapsis
138.2033°
True anomaly
71.82881°
Mean anomaly
71.8106°
Eccentric anomaly
71.81971°
Mean motion
0.25067 °/min
Orbital period
1,436.14 mins
BSTAR
0
Loading maneuver chart data...
Computing Atmospheric mass density...
Loading historical data...
Loading historical data...
Loading historical data...
Loading historical data...
Loading historical data...
Loading historical data...
Loading historical data...
Other satellites on launch #39 in the year 2016 (2016-06-18 UTC)

Documentation

Showing up to 5 results
|